SVA036 KIAD-OEJN

Flight info

Callsign SVA036
Flight time N/A
Altitude 33000
Route JCOBY4 SWANN DCT BROSS Q419 RBV Q22 FOXWD DCT WITCH DCT ALLEX DCT JOOPY/M082F350 DCT 49N050W 5030N04000W 51N030W 5030N02000W DCT SOMAX DCT ATSUR DCT TAKAS/N0469F350 DCT ALUTA/N0471F370 DCT KORER DCT LEMKA DCT BEBIX DCT LERGA DCT TOZOT DCT OTROT DCT RETNO DCT KOLON DCT RAPUR DCT RATAP DCT BTA DCT DOKAR DCT SUNEV DCT KONUT/N0466F390 DCT NAXES DCT BELIX DCT SALUN N705 BOPIX N710 TAKRI P751 LXR M999 MUVOL
Aircraft B77W/H-SDE2E3FGHIRWXY/L

Departure

Time N/A
Airport Washington Dulles International Airport (KIAD)

Arrival

Time 2026-05-06 10:04
Airport King Abdulaziz International Airport (OEJN)
Time Latitude Longitude Altitude Speed Heading
2026-05-06 05:56 41.56812 11.53311 36973 ft 479 kts 132°
2026-05-06 05:56 41.54127 11.58067 36975 ft 479 kts 132°
2026-05-06 05:56 41.50112 11.65164 36975 ft 479 kts 132°
2026-05-06 05:57 41.46089 11.72258 36960 ft 479 kts 132°
2026-05-06 05:57 41.42065 11.79339 36982 ft 479 kts 132°
2026-05-06 05:58 41.38061 11.86370 36979 ft 479 kts 132°
2026-05-06 05:58 41.34029 11.93432 36978 ft 479 kts 131°
2026-05-06 05:59 41.30000 12.00476 36984 ft 478 kts 132°
2026-05-06 05:59 41.26009 12.07551 36976 ft 478 kts 130°
2026-05-06 06:00 41.22075 12.14675 36994 ft 478 kts 130°
2026-05-06 06:00 41.18150 12.21772 37000 ft 478 kts 130°
2026-05-06 06:01 41.14202 12.28871 37003 ft 478 kts 131°
2026-05-06 06:01 41.10254 12.35942 36983 ft 478 kts 131°
2026-05-06 06:02 41.06290 12.43021 36982 ft 478 kts 131°
2026-05-06 06:02 41.02326 12.50085 36998 ft 478 kts 131°
2026-05-06 06:03 40.98361 12.57135 37009 ft 478 kts 131°
2026-05-06 06:03 40.94377 12.64203 37007 ft 479 kts 131°
2026-05-06 06:04 40.90403 12.71238 37011 ft 479 kts 131°
2026-05-06 06:04 40.86405 12.78299 37000 ft 480 kts 131°
2026-05-06 06:05 40.82418 12.85326 37019 ft 479 kts 131°
2026-05-06 06:05 40.78425 12.92347 37003 ft 478 kts 131°
2026-05-06 06:06 40.74428 12.99358 37021 ft 478 kts 131°
2026-05-06 06:06 40.70473 13.06279 37027 ft 478 kts 131°
2026-05-06 06:07 40.66444 13.13316 37023 ft 477 kts 131°
2026-05-06 06:07 40.62470 13.20239 37019 ft 477 kts 131°
2026-05-06 06:08 40.58466 13.27201 37025 ft 477 kts 131°
2026-05-06 06:08 40.54453 13.34161 37015 ft 478 kts 131°
2026-05-06 06:09 40.50438 13.41109 37031 ft 478 kts 131°
2026-05-06 06:09 40.46409 13.48066 37030 ft 478 kts 131°
2026-05-06 06:10 40.42376 13.55016 37026 ft 478 kts 131°
2026-05-06 06:10 40.39005 13.60812 37033 ft 478 kts 131°
2026-05-06 06:11 40.34312 13.68863 37033 ft 478 kts 131°
2026-05-06 06:11 40.30272 13.75778 37016 ft 478 kts 131°
2026-05-06 06:12 40.26232 13.82677 37028 ft 477 kts 131°
2026-05-06 06:12 40.22867 13.88412 37028 ft 478 kts 131°
2026-05-06 06:13 40.18163 13.96411 37035 ft 478 kts 131°
2026-05-06 06:13 40.14761 14.02184 37034 ft 479 kts 131°
2026-05-06 06:14 40.10042 14.10175 37039 ft 479 kts 131°
2026-05-06 06:14 40.05964 14.17063 37041 ft 480 kts 131°
2026-05-06 06:15 40.02568 14.22788 37021 ft 480 kts 131°
2026-05-06 06:15 39.98469 14.29684 37050 ft 480 kts 131°
2026-05-06 06:16 39.94374 14.36561 37047 ft 480 kts 131°
2026-05-06 06:16 39.90271 14.43438 37050 ft 481 kts 131°
2026-05-06 06:17 39.86159 14.50306 37054 ft 481 kts 131°
2026-05-06 06:17 39.82041 14.57159 37054 ft 481 kts 131°
2026-05-06 06:18 39.77921 14.64006 37049 ft 481 kts 131°
2026-05-06 06:18 39.73812 14.70823 37047 ft 481 kts 131°
2026-05-06 06:19 39.69685 14.77655 37021 ft 481 kts 131°
2026-05-06 06:19 39.65561 14.84469 37027 ft 481 kts 131°
2026-05-06 06:20 39.61431 14.91276 37026 ft 480 kts 131°
2026-05-06 06:20 39.57298 14.98075 37042 ft 480 kts 131°
2026-05-06 06:21 39.53164 15.04861 37040 ft 480 kts 131°
2026-05-06 06:21 39.49019 15.11649 37045 ft 480 kts 131°
2026-05-06 06:22 39.44899 15.18382 37039 ft 481 kts 131°
2026-05-06 06:22 39.40745 15.25157 37050 ft 481 kts 131°
2026-05-06 06:23 39.36585 15.31926 37040 ft 481 kts 131°
2026-05-06 06:23 39.32411 15.38705 37062 ft 481 kts 131°
2026-05-06 06:24 39.28244 15.45457 37058 ft 482 kts 131°
2026-05-06 06:24 39.24059 15.52224 37062 ft 482 kts 131°
2026-05-06 06:25 39.19876 15.58974 37060 ft 482 kts 132°
2026-05-06 06:26 39.13382 15.69424 37064 ft 481 kts 131°
2026-05-06 06:26 39.09194 15.76146 37065 ft 481 kts 131°
2026-05-06 06:27 39.05002 15.82859 37071 ft 481 kts 131°
2026-05-06 06:27 39.00808 15.89561 37065 ft 481 kts 131°
2026-05-06 06:28 38.96617 15.96245 37058 ft 481 kts 132°
2026-05-06 06:28 38.92426 16.02915 37048 ft 481 kts 132°
2026-05-06 06:29 38.88437 16.09250 37048 ft 481 kts 131°
2026-05-06 06:29 38.84226 16.15923 37047 ft 481 kts 131°
2026-05-06 06:30 38.80017 16.22581 37050 ft 481 kts 132°
2026-05-06 06:30 38.75793 16.29249 37059 ft 482 kts 132°
2026-05-06 06:31 38.71559 16.35918 37048 ft 482 kts 131°
2026-05-06 06:31 38.67344 16.42544 37069 ft 482 kts 132°
2026-05-06 06:32 38.63109 16.49186 37071 ft 482 kts 132°
2026-05-06 06:32 38.58874 16.55815 37080 ft 482 kts 132°
2026-05-06 06:33 38.54632 16.62443 37076 ft 482 kts 132°
2026-05-06 06:33 38.50384 16.69065 37080 ft 481 kts 132°
2026-05-06 06:34 38.46136 16.75673 37075 ft 481 kts 132°
2026-05-06 06:34 38.41886 16.82272 37080 ft 482 kts 132°
2026-05-06 06:35 38.37631 16.88865 37082 ft 482 kts 132°
2026-05-06 06:35 38.33365 16.95460 37068 ft 482 kts 132°
2026-05-06 06:36 38.29099 17.02043 37080 ft 482 kts 132°
2026-05-06 06:36 38.24825 17.08624 37077 ft 482 kts 132°
2026-05-06 06:37 38.20552 17.15191 37086 ft 482 kts 132°
2026-05-06 06:37 38.16265 17.21765 37087 ft 482 kts 132°
2026-05-06 06:38 38.11984 17.28318 37087 ft 482 kts 132°
2026-05-06 06:38 38.07700 17.34861 37089 ft 483 kts 132°
2026-05-06 06:39 38.03397 17.41421 37075 ft 483 kts 132°
2026-05-06 06:39 37.99099 17.47959 37099 ft 483 kts 132°
2026-05-06 06:40 37.94793 17.54497 37097 ft 483 kts 132°
2026-05-06 06:40 37.90508 17.60990 37097 ft 483 kts 132°
2026-05-06 06:41 37.86197 17.67509 37102 ft 483 kts 132°
2026-05-06 06:41 37.81870 17.74039 37102 ft 483 kts 132°
2026-05-06 06:42 37.78274 17.79455 37098 ft 484 kts 132°
2026-05-06 06:42 37.73219 17.87056 37090 ft 484 kts 132°
2026-05-06 06:43 37.69614 17.92464 37103 ft 484 kts 132°
2026-05-06 06:43 37.64570 18.00017 37102 ft 484 kts 132°
2026-05-06 06:44 37.60222 18.06514 37111 ft 484 kts 133°
2026-05-06 06:44 37.56578 18.11949 37111 ft 484 kts 133°
2026-05-06 06:45 37.52230 18.18421 37109 ft 484 kts 133°
2026-05-06 06:45 37.47871 18.24899 37113 ft 484 kts 133°
2026-05-06 06:46 37.43519 18.31352 37105 ft 484 kts 133°
2026-05-06 06:46 37.39170 18.37789 37108 ft 483 kts 133°
2026-05-06 06:47 37.34819 18.44215 37109 ft 483 kts 133°
2026-05-06 06:47 37.30474 18.50621 37113 ft 483 kts 133°
2026-05-06 06:48 37.26142 18.56995 37117 ft 483 kts 133°
2026-05-06 06:48 37.21837 18.63317 37118 ft 484 kts 133°
2026-05-06 06:49 37.17433 18.69771 37115 ft 484 kts 133°
2026-05-06 06:49 37.13078 18.76143 37107 ft 484 kts 133°
2026-05-06 06:50 37.08687 18.82555 37113 ft 485 kts 133°
2026-05-06 06:50 37.04269 18.88995 37122 ft 485 kts 133°
2026-05-06 06:51 36.99920 18.95322 37120 ft 486 kts 133°
2026-05-06 06:51 36.95655 19.01897 37115 ft 488 kts 126°
2026-05-06 06:52 36.92065 19.09014 37120 ft 488 kts 123°
2026-05-06 06:52 36.88464 19.16276 37117 ft 488 kts 123°
2026-05-06 06:53 36.84861 19.23465 37123 ft 489 kts 124°
2026-05-06 06:53 36.81231 19.30644 37124 ft 489 kts 124°
2026-05-06 06:54 36.77591 19.37810 37123 ft 489 kts 124°
2026-05-06 06:54 36.73947 19.44971 37131 ft 489 kts 124°
2026-05-06 06:55 36.70305 19.52117 37127 ft 489 kts 124°
2026-05-06 06:55 36.66644 19.59283 37124 ft 490 kts 124°
2026-05-06 06:56 36.63011 19.66381 37144 ft 490 kts 124°
2026-05-06 06:56 36.59361 19.73499 37129 ft 490 kts 124°
2026-05-06 06:57 36.55692 19.80637 37125 ft 490 kts 124°
2026-05-06 06:57 36.52031 19.87743 37145 ft 491 kts 124°
2026-05-06 06:58 36.48358 19.94861 37142 ft 491 kts 124°
2026-05-06 06:58 36.44656 20.02017 37119 ft 492 kts 124°
2026-05-06 06:59 36.40987 20.09095 37131 ft 492 kts 124°
2026-05-06 06:59 36.37261 20.16269 37133 ft 496 kts 124°
2026-05-06 07:00 36.33539 20.23419 37116 ft 497 kts 124°
2026-05-06 07:00 36.29773 20.30638 37171 ft 500 kts 124°
2026-05-06 07:01 36.26021 20.37817 37257 ft 498 kts 124°
2026-05-06 07:01 36.24140 20.41411 37630 ft 498 kts 124°
2026-05-06 07:01 36.22253 20.45012 38052 ft 495 kts 124°
2026-05-06 07:01 36.20384 20.48576 38482 ft 494 kts 124°
2026-05-06 07:02 36.18516 20.52132 38828 ft 493 kts 124°
2026-05-06 07:02 36.16640 20.55700 39048 ft 494 kts 124°
2026-05-06 07:02 36.14757 20.59277 39077 ft 497 kts 124°
2026-05-06 07:03 36.10959 20.66482 39115 ft 496 kts 124°
2026-05-06 07:03 36.07201 20.73597 39123 ft 493 kts 124°
2026-05-06 07:04 36.03448 20.80688 39130 ft 492 kts 125°
2026-05-06 07:04 35.99718 20.87720 39130 ft 492 kts 124°
2026-05-06 07:05 35.95957 20.94795 39134 ft 492 kts 124°
2026-05-06 07:05 35.92225 21.01802 39130 ft 494 kts 124°
2026-05-06 07:06 35.88463 21.08851 39127 ft 495 kts 125°
2026-05-06 07:06 35.84667 21.15950 39128 ft 496 kts 124°
2026-05-06 07:07 35.80861 21.23052 39135 ft 497 kts 124°
2026-05-06 07:07 35.77049 21.30151 39125 ft 497 kts 125°
2026-05-06 07:08 35.73229 21.37251 39124 ft 498 kts 125°
2026-05-06 07:08 35.69426 21.44305 39130 ft 498 kts 125°
2026-05-06 07:09 35.65591 21.51403 39127 ft 498 kts 125°
2026-05-06 07:09 35.61755 21.58488 39127 ft 498 kts 125°
2026-05-06 07:10 35.57919 21.65559 39131 ft 498 kts 125°
2026-05-06 07:10 35.54070 21.72640 39130 ft 497 kts 125°
2026-05-06 07:11 35.50244 21.79665 39130 ft 497 kts 125°
2026-05-06 07:11 35.46402 21.86703 39126 ft 497 kts 125°
2026-05-06 07:12 35.42566 21.93717 39128 ft 497 kts 125°
2026-05-06 07:12 35.38719 22.00737 39120 ft 497 kts 125°
2026-05-06 07:13 35.34857 22.07771 39133 ft 497 kts 125°
2026-05-06 07:13 35.30988 22.14802 39129 ft 498 kts 125°
2026-05-06 07:14 35.27112 22.21834 39134 ft 499 kts 125°
2026-05-06 07:14 35.23229 22.28863 39126 ft 499 kts 125°
2026-05-06 07:15 35.19335 22.35897 39132 ft 500 kts 125°
2026-05-06 07:15 35.15433 22.42932 39128 ft 500 kts 125°
2026-05-06 07:16 35.11532 22.49952 39132 ft 501 kts 125°
2026-05-06 07:16 35.07626 22.56967 39129 ft 501 kts 125°
2026-05-06 07:17 35.03704 22.63996 39124 ft 501 kts 126°
2026-05-06 07:17 34.99785 22.71006 39127 ft 502 kts 126°
2026-05-06 07:18 34.95850 22.78030 39124 ft 502 kts 126°
2026-05-06 07:18 34.91903 22.85060 39128 ft 503 kts 126°
2026-05-06 07:19 34.87948 22.92093 39128 ft 504 kts 126°
2026-05-06 07:19 34.84009 22.99083 39134 ft 504 kts 126°
2026-05-06 07:20 34.80038 23.06116 39129 ft 504 kts 126°
2026-05-06 07:20 34.76060 23.13146 39134 ft 505 kts 126°
2026-05-06 07:21 34.72075 23.20176 39132 ft 505 kts 126°
2026-05-06 07:21 34.68086 23.27199 39117 ft 505 kts 126°
2026-05-06 07:22 34.64094 23.34214 39136 ft 505 kts 126°
2026-05-06 07:22 34.60091 23.41233 39119 ft 506 kts 126°
2026-05-06 07:23 34.56761 23.47062 39124 ft 506 kts 126°
2026-05-06 07:23 34.52731 23.54103 39139 ft 507 kts 126°
2026-05-06 07:24 34.48706 23.61123 39143 ft 507 kts 126°
2026-05-06 07:24 34.44680 23.68130 39123 ft 508 kts 126°
2026-05-06 07:25 34.40653 23.75125 39129 ft 508 kts 126°
2026-05-06 07:25 34.36626 23.82106 39125 ft 509 kts 126°
2026-05-06 07:26 34.32580 23.89108 39124 ft 509 kts 126°
2026-05-06 07:26 34.28514 23.96129 39139 ft 510 kts 126°
2026-05-06 07:27 34.24451 24.03132 39130 ft 511 kts 126°
2026-05-06 07:27 34.20366 24.10159 39117 ft 511 kts 126°
2026-05-06 07:28 34.16274 24.17185 39137 ft 512 kts 126°
2026-05-06 07:28 34.10133 24.27704 39131 ft 513 kts 127°
2026-05-06 07:29 34.06023 24.34730 39134 ft 513 kts 127°
2026-05-06 07:29 34.01900 24.41750 39124 ft 513 kts 128°
2026-05-06 07:30 33.97217 24.48175 39131 ft 509 kts 140°
2026-05-06 07:30 33.91910 24.53828 39128 ft 509 kts 141°
2026-05-06 07:31 33.86589 24.59448 39140 ft 509 kts 141°
2026-05-06 07:31 33.81295 24.65090 39133 ft 510 kts 141°
2026-05-06 07:32 33.75995 24.70767 39140 ft 510 kts 141°
2026-05-06 07:32 33.70712 24.76423 39139 ft 510 kts 141°
2026-05-06 07:33 33.65408 24.82088 39136 ft 510 kts 141°
2026-05-06 07:33 33.60100 24.87745 39126 ft 510 kts 141°
2026-05-06 07:34 33.54789 24.93395 39140 ft 510 kts 141°
2026-05-06 07:34 33.49476 24.99037 39139 ft 510 kts 141°
2026-05-06 07:35 33.44168 25.04664 39138 ft 511 kts 141°
2026-05-06 07:35 33.38846 25.10297 39140 ft 511 kts 141°
2026-05-06 07:36 33.33520 25.15924 39138 ft 511 kts 141°
2026-05-06 07:36 33.28190 25.21547 39140 ft 511 kts 141°
2026-05-06 07:37 33.22855 25.27165 39143 ft 511 kts 141°
2026-05-06 07:37 33.17516 25.32777 39141 ft 511 kts 141°
2026-05-06 07:38 33.12172 25.38386 39140 ft 512 kts 141°
2026-05-06 07:38 33.06824 25.43989 39142 ft 512 kts 141°
2026-05-06 07:39 33.01476 25.49582 39125 ft 512 kts 142°
2026-05-06 07:39 32.96122 25.55173 39136 ft 512 kts 142°
2026-05-06 07:40 32.90766 25.60757 39144 ft 512 kts 142°
2026-05-06 07:40 32.85407 25.66334 39141 ft 512 kts 142°
2026-05-06 07:41 32.80037 25.71913 39146 ft 513 kts 142°
2026-05-06 07:41 32.74661 25.77489 39147 ft 513 kts 142°
2026-05-06 07:42 32.69279 25.83061 39134 ft 514 kts 142°
2026-05-06 07:42 32.63891 25.88632 39146 ft 514 kts 142°
2026-05-06 07:43 32.58497 25.94198 39148 ft 515 kts 142°
2026-05-06 07:43 32.53089 25.99771 39146 ft 515 kts 142°
2026-05-06 07:44 32.47674 26.05340 39148 ft 516 kts 142°
2026-05-06 07:44 32.42246 26.10915 39148 ft 516 kts 142°
2026-05-06 07:45 32.36821 26.16478 39137 ft 516 kts 142°
2026-05-06 07:45 32.31403 26.22023 39149 ft 516 kts 142°
2026-05-06 07:46 32.25975 26.27571 39144 ft 516 kts 142°
2026-05-06 07:46 32.20538 26.33117 39150 ft 516 kts 142°
2026-05-06 07:47 32.15105 26.38651 39151 ft 516 kts 142°
2026-05-06 07:47 32.09667 26.44180 39152 ft 516 kts 142°
2026-05-06 07:48 32.04232 26.49698 39143 ft 516 kts 142°
2026-05-06 07:48 31.98793 26.55211 39151 ft 515 kts 142°
2026-05-06 07:49 31.93356 26.60712 39153 ft 515 kts 143°
2026-05-06 07:49 31.87947 26.66177 39153 ft 516 kts 143°
2026-05-06 07:50 31.82500 26.71671 39153 ft 516 kts 143°
2026-05-06 07:50 31.77055 26.77155 39153 ft 516 kts 143°
2026-05-06 07:51 31.71601 26.82638 39152 ft 515 kts 143°
2026-05-06 07:51 31.66166 26.88094 39151 ft 515 kts 143°
2026-05-06 07:52 31.60717 26.93556 39157 ft 515 kts 143°
2026-05-06 07:52 31.55262 26.99014 39156 ft 515 kts 143°
2026-05-06 07:53 31.49803 27.04468 39155 ft 516 kts 143°
2026-05-06 07:53 31.44343 27.09916 39156 ft 516 kts 143°
2026-05-06 07:54 31.38884 27.15355 39145 ft 515 kts 143°
2026-05-06 07:54 31.33291 27.20533 39186 ft 510 kts 151°
2026-05-06 07:55 31.27111 27.24477 39180 ft 503 kts 162°
2026-05-06 07:55 31.20603 27.27369 39181 ft 500 kts 165°
2026-05-06 07:56 31.14078 27.30215 39150 ft 501 kts 165°
2026-05-06 07:56 31.07578 27.33118 39165 ft 500 kts 164°
2026-05-06 07:57 31.01236 27.36421 39159 ft 507 kts 155°
2026-05-06 07:57 30.95390 27.41044 39157 ft 513 kts 145°
2026-05-06 07:58 30.89840 27.46277 39159 ft 514 kts 144°
2026-05-06 07:58 30.84336 27.51474 39127 ft 514 kts 145°
2026-05-06 07:59 30.78770 27.56664 39141 ft 513 kts 145°
2026-05-06 07:59 30.73189 27.61830 39146 ft 512 kts 146°
2026-05-06 08:00 30.67610 27.66981 39149 ft 512 kts 146°
2026-05-06 08:00 30.62034 27.72125 39147 ft 512 kts 146°
2026-05-06 08:01 30.56457 27.77266 39146 ft 512 kts 146°
2026-05-06 08:01 30.50878 27.82400 39125 ft 512 kts 146°
2026-05-06 08:02 30.45295 27.87531 39132 ft 512 kts 146°
2026-05-06 08:02 30.39715 27.92650 39135 ft 512 kts 146°
2026-05-06 08:03 30.34135 27.97761 39136 ft 511 kts 146°
2026-05-06 08:03 30.28553 28.02868 39140 ft 512 kts 146°
2026-05-06 08:04 30.22977 28.07960 39135 ft 512 kts 146°
2026-05-06 08:04 30.17391 28.13056 39137 ft 512 kts 146°
2026-05-06 08:05 30.11799 28.18148 39132 ft 512 kts 146°
2026-05-06 08:05 30.06212 28.23230 39140 ft 511 kts 146°
2026-05-06 08:06 30.01650 28.27373 39140 ft 511 kts 146°
2026-05-06 08:06 29.96057 28.32447 39136 ft 511 kts 146°
2026-05-06 08:07 29.90464 28.37513 39128 ft 511 kts 146°
2026-05-06 08:07 29.85216 28.43035 39147 ft 515 kts 136°
2026-05-06 08:08 29.80753 28.49524 39146 ft 518 kts 130°
2026-05-06 08:08 29.76417 28.56154 39153 ft 518 kts 130°
2026-05-06 08:09 29.72028 28.62743 39152 ft 518 kts 130°
2026-05-06 08:09 29.67625 28.69295 39145 ft 518 kts 131°
2026-05-06 08:10 29.63223 28.75843 39149 ft 518 kts 131°
2026-05-06 08:10 29.58818 28.82390 39138 ft 518 kts 131°
2026-05-06 08:11 29.54410 28.88932 39131 ft 518 kts 131°
2026-05-06 08:11 29.50019 28.95443 39110 ft 517 kts 131°
2026-05-06 08:12 29.45600 29.01983 39120 ft 517 kts 131°
2026-05-06 08:12 29.40925 29.08119 39127 ft 512 kts 140°
2026-05-06 08:13 29.35450 29.13235 39142 ft 507 kts 148°
2026-05-06 08:13 29.29736 29.18066 39134 ft 508 kts 148°
2026-05-06 08:14 29.24084 29.22910 39134 ft 508 kts 148°
2026-05-06 08:14 29.18431 29.27797 39137 ft 509 kts 147°
2026-05-06 08:15 29.12781 29.32671 39125 ft 509 kts 148°
2026-05-06 08:15 29.07112 29.37455 39141 ft 508 kts 149°
2026-05-06 08:16 29.01398 29.42179 39138 ft 508 kts 149°
2026-05-06 08:16 28.95681 29.46903 39140 ft 508 kts 149°
2026-05-06 08:17 28.89965 29.51638 39141 ft 507 kts 149°
2026-05-06 08:17 28.84270 29.56357 39118 ft 507 kts 149°
2026-05-06 08:18 28.78562 29.61083 39139 ft 506 kts 149°
2026-05-06 08:18 28.72864 29.65791 39145 ft 506 kts 149°
2026-05-06 08:19 28.67179 29.70481 39148 ft 506 kts 149°
2026-05-06 08:19 28.61488 29.75170 39149 ft 506 kts 149°
2026-05-06 08:20 28.55776 29.79869 39150 ft 506 kts 149°
2026-05-06 08:20 28.50070 29.84559 39147 ft 505 kts 149°
2026-05-06 08:21 28.44374 29.89233 39148 ft 505 kts 149°
2026-05-06 08:21 28.38678 29.93900 39155 ft 505 kts 149°
2026-05-06 08:22 28.32982 29.98561 39155 ft 504 kts 149°
2026-05-06 08:22 28.27291 30.03213 39156 ft 504 kts 149°
2026-05-06 08:23 28.21593 30.07863 39159 ft 504 kts 149°
2026-05-06 08:23 28.15919 30.12488 39161 ft 503 kts 149°
2026-05-06 08:24 28.10230 30.17118 39158 ft 503 kts 149°
2026-05-06 08:24 28.04548 30.21736 39159 ft 503 kts 149°
2026-05-06 08:25 27.98858 30.26355 39164 ft 503 kts 149°
2026-05-06 08:25 27.93173 30.30964 39160 ft 503 kts 149°
2026-05-06 08:26 27.87477 30.35576 39165 ft 503 kts 150°
2026-05-06 08:26 27.81787 30.40177 39160 ft 503 kts 150°
2026-05-06 08:27 27.76093 30.44775 39164 ft 503 kts 150°
2026-05-06 08:27 27.70405 30.49362 39170 ft 503 kts 150°
2026-05-06 08:28 27.64704 30.53954 39169 ft 503 kts 150°
2026-05-06 08:28 27.59004 30.58539 39169 ft 503 kts 150°
2026-05-06 08:29 27.53306 30.63117 39149 ft 503 kts 150°
2026-05-06 08:29 27.47616 30.67682 39168 ft 502 kts 150°
2026-05-06 08:30 27.41914 30.72250 39170 ft 502 kts 150°
2026-05-06 08:30 27.36219 30.76808 39172 ft 502 kts 150°
2026-05-06 08:31 27.30518 30.81364 39168 ft 502 kts 150°
2026-05-06 08:31 27.24820 30.85912 39166 ft 503 kts 150°
2026-05-06 08:32 27.19119 30.90457 39166 ft 502 kts 150°
2026-05-06 08:32 27.13429 30.94988 39179 ft 502 kts 150°
2026-05-06 08:33 27.07717 30.99532 39182 ft 502 kts 150°
2026-05-06 08:33 27.02295 31.04512 39180 ft 510 kts 141°
2026-05-06 08:34 26.95384 31.13683 39176 ft 515 kts 133°
2026-05-06 08:35 26.90926 31.19934 39166 ft 515 kts 134°
2026-05-06 08:35 26.86387 31.26224 39145 ft 515 kts 134°
2026-05-06 08:36 26.81868 31.32433 39111 ft 514 kts 134°
2026-05-06 08:36 26.77341 31.38634 39127 ft 514 kts 134°
2026-05-06 08:37 26.72813 31.44832 39092 ft 514 kts 134°
2026-05-06 08:37 26.68298 31.51008 39092 ft 514 kts 134°
2026-05-06 08:38 26.63799 31.57153 39078 ft 513 kts 134°
2026-05-06 08:38 26.59283 31.63313 39060 ft 513 kts 134°
2026-05-06 08:39 26.54762 31.69470 39056 ft 512 kts 134°
2026-05-06 08:39 26.50254 31.75603 39029 ft 512 kts 135°
2026-05-06 08:40 26.45739 31.81736 39031 ft 511 kts 135°
2026-05-06 08:40 26.41243 31.87835 39030 ft 511 kts 135°
2026-05-06 08:41 26.36720 31.93962 39030 ft 511 kts 135°
2026-05-06 08:41 26.32207 32.00068 39032 ft 511 kts 135°
2026-05-06 08:42 26.27681 32.06183 39030 ft 511 kts 135°
2026-05-06 08:42 26.23158 32.12286 39030 ft 511 kts 135°
2026-05-06 08:43 26.18633 32.18382 39038 ft 511 kts 135°
2026-05-06 08:43 26.14099 32.24483 39034 ft 512 kts 135°
2026-05-06 08:44 26.09561 32.30581 39021 ft 511 kts 135°
2026-05-06 08:44 26.05773 32.35665 39021 ft 512 kts 135°
2026-05-06 08:45 26.01230 32.41755 39031 ft 512 kts 135°
2026-05-06 08:45 25.96682 32.47844 39030 ft 512 kts 135°
2026-05-06 08:46 25.92133 32.53926 39037 ft 512 kts 135°
2026-05-06 08:46 25.87583 32.60002 39043 ft 513 kts 135°
2026-05-06 08:47 25.83026 32.66080 39041 ft 512 kts 136°
2026-05-06 08:47 25.78494 32.72118 39046 ft 512 kts 136°
2026-05-06 08:48 25.74031 32.78232 39047 ft 515 kts 130°
2026-05-06 08:48 25.70054 32.84864 39016 ft 517 kts 128°
2026-05-06 08:49 25.66147 32.91536 39030 ft 516 kts 129°
2026-05-06 08:49 25.62214 32.98178 39033 ft 515 kts 129°
2026-05-06 08:50 25.58260 33.04793 39028 ft 515 kts 129°
2026-05-06 08:50 25.54308 33.11384 39024 ft 514 kts 129°
2026-05-06 08:51 25.50357 33.17971 39015 ft 513 kts 129°
2026-05-06 08:51 25.46380 33.24595 39019 ft 513 kts 129°
2026-05-06 08:52 25.42455 33.31121 39019 ft 512 kts 129°
2026-05-06 08:52 25.38520 33.37658 39016 ft 512 kts 130°
2026-05-06 08:53 25.34567 33.44217 39013 ft 512 kts 130°
2026-05-06 08:53 25.30610 33.50770 39009 ft 512 kts 130°
2026-05-06 08:54 25.26676 33.57267 38986 ft 512 kts 130°
2026-05-06 08:54 25.22718 33.63794 39002 ft 512 kts 130°
2026-05-06 08:55 25.18756 33.70321 38997 ft 512 kts 130°
2026-05-06 08:55 25.14798 33.76836 39004 ft 512 kts 130°
2026-05-06 08:56 25.10824 33.83368 38993 ft 512 kts 130°
2026-05-06 08:56 25.06851 33.89888 38998 ft 512 kts 130°
2026-05-06 08:57 25.02879 33.96398 38982 ft 512 kts 131°
2026-05-06 08:57 24.98905 34.02904 38992 ft 512 kts 131°
2026-05-06 08:58 24.94923 34.09412 38997 ft 511 kts 131°
2026-05-06 08:58 24.90946 34.15905 38994 ft 511 kts 131°
2026-05-06 08:59 24.87003 34.22333 38986 ft 511 kts 131°
2026-05-06 08:59 24.83054 34.28762 38998 ft 510 kts 131°
2026-05-06 09:00 24.79089 34.35209 39011 ft 509 kts 131°
2026-05-06 09:00 24.75116 34.41657 39011 ft 509 kts 131°
2026-05-06 09:01 24.71132 34.48117 38986 ft 510 kts 132°
2026-05-06 09:01 24.67149 34.54568 38993 ft 510 kts 132°
2026-05-06 09:02 24.63165 34.61011 39004 ft 510 kts 132°
2026-05-06 09:02 24.59172 34.67459 39006 ft 511 kts 132°
2026-05-06 09:03 24.55169 34.73916 38988 ft 511 kts 132°
2026-05-06 09:03 24.51192 34.80322 39004 ft 511 kts 132°
2026-05-06 09:04 24.47193 34.86753 39008 ft 511 kts 132°
2026-05-06 09:04 24.43212 34.93153 38993 ft 510 kts 133°
2026-05-06 09:05 24.39202 34.99585 38998 ft 511 kts 133°
2026-05-06 09:05 24.35202 35.05994 39001 ft 510 kts 133°
2026-05-06 09:06 24.31183 35.12425 39002 ft 511 kts 133°
2026-05-06 09:06 24.27156 35.18860 39007 ft 512 kts 133°
2026-05-06 09:07 24.23135 35.25277 38989 ft 513 kts 133°
2026-05-06 09:07 24.19106 35.31701 38999 ft 513 kts 133°
2026-05-06 09:08 24.15088 35.38099 39000 ft 512 kts 133°
2026-05-06 09:08 24.11042 35.44532 38995 ft 512 kts 133°
2026-05-06 09:09 24.07001 35.50950 38971 ft 512 kts 134°
2026-05-06 09:09 24.02968 35.57347 38979 ft 510 kts 134°
2026-05-06 09:10 23.98939 35.63729 38985 ft 509 kts 134°
2026-05-06 09:10 23.94909 35.70104 38980 ft 509 kts 134°
2026-05-06 09:11 23.90881 35.76465 38973 ft 509 kts 134°
2026-05-06 09:11 23.86852 35.82825 38981 ft 509 kts 134°
2026-05-06 09:12 23.82815 35.89188 38981 ft 510 kts 134°
2026-05-06 09:12 23.78783 35.95538 38973 ft 510 kts 134°
2026-05-06 09:13 23.74732 36.01908 38971 ft 511 kts 134°
2026-05-06 09:13 23.70691 36.08255 38968 ft 511 kts 134°
2026-05-06 09:14 23.66632 36.14623 38967 ft 511 kts 134°
2026-05-06 09:14 23.62574 36.20982 38965 ft 511 kts 134°
2026-05-06 09:15 23.58495 36.27365 38947 ft 511 kts 134°
2026-05-06 09:15 23.54451 36.33684 38956 ft 510 kts 134°
2026-05-06 09:16 23.50392 36.40020 38965 ft 510 kts 134°
2026-05-06 09:16 23.46333 36.46348 38951 ft 510 kts 134°
2026-05-06 09:17 23.42267 36.52678 38945 ft 509 kts 134°
2026-05-06 09:17 23.38203 36.58997 38953 ft 510 kts 134°
2026-05-06 09:18 23.34142 36.65304 38952 ft 510 kts 134°
2026-05-06 09:18 23.30069 36.71621 38956 ft 510 kts 134°
2026-05-06 09:19 23.25991 36.77940 38956 ft 511 kts 134°
2026-05-06 09:19 23.21904 36.84264 38955 ft 511 kts 134°
2026-05-06 09:20 23.17811 36.90591 38956 ft 511 kts 134°
2026-05-06 09:20 23.13716 36.96913 38953 ft 511 kts 134°
2026-05-06 09:21 23.09624 37.03222 38942 ft 511 kts 134°
2026-05-06 09:21 23.06222 37.08463 38946 ft 511 kts 134°
2026-05-06 09:22 23.02129 37.14761 38926 ft 509 kts 134°
2026-05-06 09:22 22.99411 37.18926 38748 ft 501 kts 135°
2026-05-06 09:22 22.98076 37.20964 38551 ft 498 kts 135°
2026-05-06 09:22 22.96071 37.24016 38133 ft 496 kts 135°
2026-05-06 09:23 22.94076 37.27046 37762 ft 494 kts 135°
2026-05-06 09:23 22.92085 37.30070 37458 ft 490 kts 135°
2026-05-06 09:23 22.90133 37.33041 37287 ft 483 kts 135°
2026-05-06 09:23 22.88187 37.36000 36867 ft 482 kts 135°
2026-05-06 09:24 22.86597 37.38411 36510 ft 482 kts 135°
2026-05-06 09:26 22.84530 37.41545 36101 ft 480 kts 135°
2026-05-06 09:26 22.82611 37.44459 35791 ft 477 kts 135°
2026-05-06 09:27 22.80699 37.47361 35511 ft 473 kts 135°
2026-05-06 09:27 22.78832 37.50194 35223 ft 470 kts 135°
2026-05-06 09:27 22.76939 37.53063 34908 ft 467 kts 135°
2026-05-06 09:27 22.75051 37.55921 34591 ft 465 kts 135°
2026-05-06 09:28 22.73175 37.58760 34290 ft 462 kts 135°
2026-05-06 09:28 22.71308 37.61584 33984 ft 460 kts 135°
2026-05-06 09:28 22.69456 37.64393 33654 ft 457 kts 135°
2026-05-06 09:28 22.67618 37.67196 33319 ft 455 kts 135°
2026-05-06 09:29 22.65808 37.69962 32997 ft 453 kts 134°
2026-05-06 09:29 22.63992 37.72739 32655 ft 450 kts 134°
2026-05-06 09:29 22.62188 37.75495 32334 ft 448 kts 134°
2026-05-06 09:29 22.60387 37.78241 32017 ft 446 kts 134°
2026-05-06 09:30 22.58605 37.80956 31702 ft 444 kts 134°
2026-05-06 09:30 22.56820 37.83674 31400 ft 442 kts 134°
2026-05-06 09:30 22.55047 37.86374 31093 ft 439 kts 134°
2026-05-06 09:30 22.53280 37.89061 30797 ft 436 kts 134°
2026-05-06 09:31 22.51534 37.91718 30424 ft 432 kts 134°
2026-05-06 09:31 22.49795 37.94360 30031 ft 430 kts 133°
2026-05-06 09:31 22.48069 37.96980 29550 ft 427 kts 133°
2026-05-06 09:31 22.46352 37.99587 29111 ft 425 kts 133°
2026-05-06 09:32 22.44650 38.02169 28675 ft 422 kts 133°
2026-05-06 09:32 22.42914 38.04788 28284 ft 445 kts 132°
2026-05-06 09:32 22.41061 38.07566 27860 ft 479 kts 131°
2026-05-06 09:32 22.39023 38.10631 27342 ft 511 kts 131°
2026-05-06 09:33 22.36938 38.13789 26859 ft 538 kts 130°
2026-05-06 09:33 22.34752 38.17120 26556 ft 549 kts 130°
2026-05-06 09:33 22.32616 38.20400 25953 ft 511 kts 130°
2026-05-06 09:33 22.30625 38.23432 24458 ft 492 kts 130°
2026-05-06 09:34 22.28671 38.26375 22913 ft 472 kts 129°
2026-05-06 09:34 22.26808 38.29169 21527 ft 452 kts 129°
2026-05-06 09:34 22.25032 38.31836 20679 ft 424 kts 129°
2026-05-06 09:34 22.23879 38.33568 20097 ft 407 kts 130°
2026-05-06 09:35 22.22927 38.34996 19610 ft 398 kts 130°
2026-05-06 09:35 22.21319 38.37404 18849 ft 398 kts 129°
2026-05-06 09:36 22.19704 38.39780 18018 ft 388 kts 131°
2026-05-06 09:36 22.18086 38.42044 17124 ft 378 kts 132°
2026-05-06 09:36 22.16494 38.44236 16258 ft 370 kts 132°
2026-05-06 09:36 22.14924 38.46394 15408 ft 362 kts 132°
2026-05-06 09:37 22.13388 38.48512 14581 ft 354 kts 132°
2026-05-06 09:37 22.11894 38.50580 13788 ft 348 kts 132°
2026-05-06 09:37 22.10865 38.52008 13181 ft 347 kts 131°
2026-05-06 09:38 22.10398 38.52654 12923 ft 350 kts 131°
2026-05-06 09:38 22.08901 38.54730 12398 ft 350 kts 131°
2026-05-06 09:38 22.07435 38.56769 12216 ft 339 kts 131°
2026-05-06 09:39 22.06002 38.58761 12076 ft 337 kts 131°
2026-05-06 09:39 22.04596 38.60714 12071 ft 325 kts 131°
2026-05-06 09:39 22.03238 38.62600 12058 ft 311 kts 131°
2026-05-06 09:39 22.01955 38.64392 12045 ft 301 kts 132°
2026-05-06 09:40 22.00677 38.66178 12041 ft 301 kts 131°
2026-05-06 09:40 21.99404 38.67956 12049 ft 302 kts 132°
2026-05-06 09:40 21.96840 38.71537 12047 ft 302 kts 132°
2026-05-06 09:41 21.95557 38.73330 12039 ft 302 kts 132°
2026-05-06 09:41 21.94274 38.75122 12043 ft 302 kts 131°
2026-05-06 09:41 21.92990 38.76916 12037 ft 302 kts 131°
2026-05-06 09:41 21.91707 38.78707 12038 ft 302 kts 132°
2026-05-06 09:42 21.90449 38.80464 12042 ft 302 kts 132°
2026-05-06 09:42 21.89172 38.82246 12040 ft 302 kts 131°
2026-05-06 09:42 21.87889 38.84035 12038 ft 302 kts 131°
2026-05-06 09:42 21.86745 38.85629 12034 ft 302 kts 131°
2026-05-06 09:43 21.85424 38.87472 12036 ft 302 kts 132°
2026-05-06 09:43 21.84142 38.89259 12028 ft 297 kts 132°
2026-05-06 09:43 21.82907 38.90984 12011 ft 284 kts 132°
2026-05-06 09:43 21.81729 38.92629 11989 ft 271 kts 132°
2026-05-06 09:44 21.80605 38.94197 11965 ft 258 kts 133°
2026-05-06 09:44 21.79542 38.95676 11944 ft 251 kts 132°
2026-05-06 09:44 21.78482 38.97146 11940 ft 250 kts 132°
2026-05-06 09:44 21.77564 38.98719 11927 ft 255 kts 113°
2026-05-06 09:45 21.77165 39.00576 11945 ft 257 kts 106°
2026-05-06 09:45 21.76823 39.02457 11892 ft 258 kts 106°
2026-05-06 09:45 21.76470 39.04363 11584 ft 263 kts 106°
2026-05-06 09:45 21.76106 39.06311 11187 ft 267 kts 106°
2026-05-06 09:46 21.75734 39.08283 10759 ft 272 kts 107°
2026-05-06 09:46 21.75380 39.10154 10458 ft 272 kts 106°
2026-05-06 09:46 21.75007 39.12119 10134 ft 263 kts 105°
2026-05-06 09:46 21.74643 39.14026 9690 ft 260 kts 105°
2026-05-06 09:47 21.74283 39.15907 9276 ft 253 kts 107°
2026-05-06 09:47 21.73935 39.17732 8900 ft 246 kts 107°
2026-05-06 09:47 21.73591 39.19513 8379 ft 245 kts 106°
2026-05-06 09:47 21.73237 39.21329 7779 ft 250 kts 104°
2026-05-06 09:48 21.72886 39.23154 7273 ft 249 kts 103°
2026-05-06 09:48 21.72295 39.24864 6745 ft 243 kts 128°
2026-05-06 09:48 21.70993 39.26014 6118 ft 246 kts 154°
2026-05-06 09:48 21.69375 39.26677 5495 ft 250 kts 160°
2026-05-06 09:49 21.67749 39.27310 5128 ft 248 kts 159°
2026-05-06 09:49 21.66123 39.27949 4826 ft 249 kts 158°
2026-05-06 09:49 21.64486 39.28595 4785 ft 255 kts 159°
2026-05-06 09:49 21.62751 39.29279 4828 ft 281 kts 159°
2026-05-06 09:50 21.60922 39.29993 4436 ft 273 kts 159°
2026-05-06 09:50 21.59208 39.30663 4100 ft 254 kts 159°
2026-05-06 09:50 21.57601 39.31291 3831 ft 235 kts 159°
2026-05-06 09:50 21.56239 39.31825 3560 ft 232 kts 159°
2026-05-06 09:51 21.54675 39.32440 3246 ft 246 kts 158°
2026-05-06 09:51 21.53043 39.33080 3002 ft 247 kts 159°
2026-05-06 09:51 21.51451 39.33704 2981 ft 244 kts 158°
2026-05-06 09:51 21.49841 39.34332 2978 ft 249 kts 159°
2026-05-06 09:52 21.48323 39.34923 2981 ft 242 kts 159°
2026-05-06 09:52 21.46835 39.35507 2976 ft 226 kts 159°
2026-05-06 09:52 21.45387 39.36074 2975 ft 222 kts 159°
2026-05-06 09:52 21.43931 39.36645 2981 ft 223 kts 159°
2026-05-06 09:53 21.42649 39.37151 3040 ft 222 kts 159°
2026-05-06 09:53 21.41136 39.37744 3006 ft 225 kts 159°
2026-05-06 09:53 21.39686 39.38313 3004 ft 220 kts 159°
2026-05-06 09:53 21.38251 39.38875 2998 ft 218 kts 160°
2026-05-06 09:54 21.36833 39.39418 3000 ft 216 kts 164°
2026-05-06 09:54 21.35371 39.39400 2993 ft 212 kts 201°
2026-05-06 09:54 21.34221 39.38435 3009 ft 216 kts 236°
2026-05-06 09:54 21.33559 39.36977 3019 ft 220 kts 248°
2026-05-06 09:55 21.33021 39.35440 3007 ft 219 kts 250°
2026-05-06 09:55 21.32548 39.33902 2985 ft 219 kts 262°
2026-05-06 09:55 21.32739 39.32301 3009 ft 218 kts 298°
2026-05-06 09:55 21.33725 39.31166 2992 ft 203 kts 334°
2026-05-06 09:56 21.34931 39.30613 3020 ft 210 kts 339°
2026-05-06 09:56 21.36257 39.30055 2985 ft 202 kts 340°
2026-05-06 09:56 21.37595 39.29515 2998 ft 211 kts 341°
2026-05-06 09:56 21.38982 39.28964 3011 ft 216 kts 341°
2026-05-06 09:57 21.40386 39.28409 3001 ft 214 kts 341°
2026-05-06 09:57 21.41769 39.27864 2976 ft 205 kts 342°
2026-05-06 09:57 21.43079 39.27348 2980 ft 203 kts 342°
2026-05-06 09:57 21.44387 39.26835 2985 ft 197 kts 341°
2026-05-06 09:58 21.45643 39.26340 2980 ft 188 kts 342°
2026-05-06 09:58 21.46824 39.25877 2970 ft 188 kts 341°
2026-05-06 09:58 21.48047 39.25396 2966 ft 184 kts 342°
2026-05-06 09:58 21.49251 39.24919 2982 ft 188 kts 341°
2026-05-06 09:59 21.50462 39.24444 2964 ft 176 kts 340°
2026-05-06 09:59 21.51550 39.24012 2971 ft 170 kts 341°
2026-05-06 09:59 21.52649 39.23579 2812 ft 163 kts 342°
2026-05-06 09:59 21.53705 39.23164 2625 ft 161 kts 341°
2026-05-06 10:00 21.54695 39.22774 2407 ft 153 kts 340°
2026-05-06 10:00 21.55671 39.22390 2226 ft 140 kts 340°
2026-05-06 10:00 21.56524 39.22052 2057 ft 131 kts 339°
2026-05-06 10:00 21.57364 39.21719 1905 ft 131 kts 341°
2026-05-06 10:01 21.58210 39.21388 1710 ft 129 kts 341°
2026-05-06 10:01 21.59013 39.21073 1572 ft 121 kts 338°
2026-05-06 10:01 21.59808 39.20755 1359 ft 122 kts 338°
2026-05-06 10:01 21.60601 39.20426 1197 ft 122 kts 338°
2026-05-06 10:02 21.61403 39.20099 1022 ft 121 kts 338°
2026-05-06 10:02 21.62181 39.19818 928 ft 120 kts 338°
2026-05-06 10:02 21.62983 39.19502 790 ft 124 kts 338°
2026-05-06 10:02 21.63800 39.19148 657 ft 128 kts 340°
2026-05-06 10:03 21.64603 39.18832 504 ft 120 kts 342°
2026-05-06 10:03 21.65403 39.18534 313 ft 124 kts 340°
2026-05-06 10:03 21.66206 39.18237 205 ft 121 kts 338°
2026-05-06 10:03 21.66967 39.17934 57 ft 117 kts 338°
2026-05-06 10:04 21.67674 39.17647 39 ft 95 kts 338°
2026-05-06 10:04 21.68016 39.17510 36 ft 60 kts 339°
2026-05-06 10:04 21.68383 39.17365 31 ft 42 kts 340°
2026-05-06 10:04 21.68640 39.17265 32 ft 34 kts 340°
2026-05-06 10:05 21.68821 39.17154 32 ft 30 kts 317°
2026-05-06 10:05 21.68923 39.17023 35 ft 22 kts 310°
2026-05-06 10:05 21.68965 39.16927 35 ft 3 kts 243°
2026-05-06 10:05 21.68948 39.16917 35 ft 3 kts 198°
2026-05-06 10:06 21.68928 39.16917 35 ft 3 kts 170°
2026-05-06 10:06 21.68902 39.16924 35 ft 4 kts 162°
2026-05-06 10:06 21.68900 39.16925 35 ft 0 kts 161°
2026-05-06 10:09 21.68896 39.16927 35 ft 3 kts 161°
2026-05-06 10:09 21.68850 39.16944 36 ft 12 kts 160°
2026-05-06 10:10 21.68752 39.16983 35 ft 17 kts 160°
2026-05-06 10:10 21.68631 39.17031 32 ft 20 kts 160°
2026-05-06 10:10 21.68501 39.17025 32 ft 20 kts 218°
2026-05-06 10:10 21.68379 39.17030 35 ft 18 kts 160°
2026-05-06 10:11 21.68260 39.17079 34 ft 19 kts 161°
2026-05-06 10:11 21.68137 39.17126 35 ft 19 kts 160°
2026-05-06 10:11 21.68063 39.17155 35 ft 0 kts 160°
2026-05-06 10:11 21.68052 39.17159 35 ft 3 kts 160°
2026-05-06 10:12 21.68016 39.17173 35 ft 8 kts 160°
2026-05-06 10:12 21.67943 39.17202 35 ft 14 kts 159°
2026-05-06 10:12 21.67842 39.17242 35 ft 17 kts 160°
2026-05-06 10:12 21.67719 39.17291 35 ft 23 kts 160°
2026-05-06 10:13 21.67546 39.17359 35 ft 28 kts 160°
2026-05-06 10:13 21.67366 39.17430 35 ft 22 kts 160°
2026-05-06 10:13 21.67249 39.17475 35 ft 10 kts 162°
2026-05-06 10:13 21.67202 39.17451 35 ft 8 kts 237°
2026-05-06 10:14 21.67214 39.17396 35 ft 9 kts 311°
2026-05-06 10:14 21.67245 39.17358 35 ft 2 kts 310°
2026-05-06 10:14 21.67253 39.17347 35 ft 1 kts 309°
2026-05-06 10:14 21.67254 39.17346 35 ft 0 kts 309°